Location: Lecco
(45.8566°N, 9.3977°E)
Time: 13:23:47
(UTC+02:00)

Explorer 11/Cluster Stage 4 - Pass Details

Date: 16 August 2020
Orbit: 467 x 1258 km, 28.8° (Epoch: 24 September)

Event Time Altitude Azimuth Distance (km) Brightness Sun altitude
Rises 23:29:09 0° 244° (WSW) 3,974 10.3 -25.1°
Reaches altitude 10° 23:32:35 10° 230° (SW) 3,107 9.5 -25.4°
Enters shadow 23:35:05 17° 214° (SSW) 2,647 9.0 -25.7°
Maximum altitude 23:38:16 22° 184° (S) 2,426 - -25.9°
Drops below altitude 10° 23:44:08 10° 138° (SE) 3,226 - -26.4°
Sets 23:47:48 0° 125° (SE) 4,166 - -26.7°
